Date String (YYYY-MM-DD hh:mm:ss) UTC,Instrument flags,Ambient pressure (hPa),Sample flow (lpm),Bypass flow (lpm),Sample temperature (°C),Ambient temperature (°C),ASC tube jacket temperature (°C),LED temperature (°C),Box temperature (°C),Sample RH (%),Span deviation,Mass concentration (μg/m³),Mass concentration (μg/m³),Mass concentration (μg/m³)
DateTimeUTC,F1_M11,P_M11,Q1_M11,Q2_M11,T1_M11,T2_M11,T3_M11,T4_M11,T5_M11,U1_M11,ZSPAN_M11,X0_M11,X2_M11,X1_M11
2022-06-04 14:00:00,,0822.5,5.00,0.00,28.2,27.3,00.0,37.0,30.1,24.6,0000.0,0008.75,0004.25,0003.66
2022-06-04 14:01:00,,0822.5,5.01,0.00,28.2,27.3,00.0,37.0,30.1,24.3,0000.0,0008.40,0004.26,0003.65
2022-06-04 14:02:00,,0822.4,5.00,0.00,28.2,27.3,00.0,37.0,30.2,24.8,0000.0,0008.51,0004.29,0003.63
2022-06-04 14:03:00,,0822.4,4.98,0.00,28.2,27.3,00.0,37.0,30.2,24.0,0000.0,0008.52,0004.30,0003.62
2022-06-04 14:04:00,,0822.3,5.00,0.00,28.2,27.3,00.0,37.0,30.2,22.9,0000.0,0008.40,0004.24,0003.59
2022-06-04 14:05:00,,0822.3,5.01,0.00,28.3,27.4,00.0,37.1,30.2,24.2,0000.0,0008.14,0004.21,0003.57
2022-06-04 14:06:00,,0822.3,5.00,0.00,28.3,27.4,00.0,37.1,30.2,23.8,0000.0,0008.53,0004.15,0003.55
2022-06-04 14:07:00,,0822.3,5.01,0.00,28.3,27.4,00.0,37.1,30.2,24.4,0000.0,0008.69,0004.13,0003.52
2022-06-04 14:08:00,,0822.3,4.99,0.00,28.3,27.4,00.0,37.1,30.2,23.0,0000.0,0009.23,0004.14,0003.49
2022-06-04 14:09:00,,0822.3,5.00,0.00,28.3,27.4,00.0,37.1,30.3,23.0,0000.0,0009.51,0004.19,0003.48
2022-06-04 14:10:00,,0822.3,5.00,0.00,28.3,27.4,00.0,37.1,30.3,23.6,0000.0,0009.56,0004.20,0003.46
2022-06-04 14:11:00,,0822.3,5.00,0.00,28.3,27.5,00.0,37.1,30.3,22.8,0000.0,0009.54,0004.20,0003.45
2022-06-04 14:12:00,,0822.3,4.99,0.00,28.4,27.5,00.0,37.2,30.3,23.7,0000.0,0009.51,0004.21,0003.43
2022-06-04 14:13:00,,0822.3,5.00,0.00,28.4,27.5,00.0,37.2,30.3,23.5,0000.0,0009.71,0004.20,0003.41
2022-06-04 14:14:00,,0822.3,5.00,0.00,28.4,27.5,00.0,37.2,30.3,23.2,0000.0,0010.65,0004.21,0003.39
2022-06-04 14:15:00,,0822.3,5.00,0.00,28.4,27.5,00.0,37.2,30.3,24.3,0000.0,0010.88,0004.26,0003.39
2022-06-04 14:16:00,,0822.3,5.00,0.00,28.4,27.5,00.0,37.2,30.4,24.3,0000.0,0011.03,0004.27,0003.39
2022-06-04 14:17:00,,0822.3,5.00,0.00,28.4,27.5,00.0,37.2,30.4,24.5,0000.0,0010.75,0004.32,0003.39
2022-06-04 14:18:00,,0822.4,5.00,0.00,28.5,27.6,00.0,37.2,30.4,25.2,0000.0,0010.57,0004.31,0003.39
2022-06-04 14:19:00,,0822.3,4.99,0.00,28.5,27.6,00.0,37.3,30.4,26.0,0000.0,0009.94,0004.25,0003.39
2022-06-04 14:20:00,,0822.3,5.00,0.00,28.5,27.6,00.0,37.3,30.4,24.9,0000.0,0009.19,0004.20,0003.39
2022-06-04 14:21:00,,0822.3,5.00,0.00,28.5,27.6,00.0,37.3,30.4,26.2,0000.0,0009.15,0004.18,0003.38
2022-06-04 14:22:00,,0822.3,5.00,0.00,28.5,27.6,00.0,37.3,30.4,24.9,0000.0,0009.11,0004.15,0003.37
2022-06-04 14:23:00,,0822.3,4.99,0.00,28.5,27.6,00.0,37.3,30.4,24.5,0000.0,0009.34,0004.19,0003.37
2022-06-04 14:24:00,,0822.3,5.00,0.00,28.5,27.6,00.0,37.3,30.5,24.8,0000.0,0009.04,0004.15,0003.36
2022-06-04 14:25:00,,0822.3,5.01,0.00,28.5,27.7,00.0,37.3,30.5,25.1,0000.0,0008.18,0004.13,0003.36
2022-06-04 14:26:00,,0822.3,4.99,0.00,28.6,27.7,00.0,37.3,30.5,24.6,0000.0,0008.13,0004.10,0003.36
2022-06-04 14:27:00,,0822.3,5.00,0.00,28.6,27.7,00.0,37.4,30.5,23.2,0000.0,0008.01,0004.04,0003.35
2022-06-04 14:28:00,,0822.3,5.00,0.00,28.6,27.7,00.0,37.4,30.5,22.0,0000.0,0007.99,0003.96,0003.33
2022-06-04 14:29:00,,0822.4,5.00,0.00,28.6,27.7,00.0,37.4,30.5,23.2,0000.0,0007.88,0003.90,0003.31
2022-06-04 14:30:00,,0822.3,4.99,0.00,28.6,27.7,00.0,37.4,30.5,22.1,0000.0,0007.93,0003.90,0003.29
2022-06-04 14:31:00,,0822.3,5.00,0.00,28.6,27.7,00.0,37.4,30.6,21.5,0000.0,0008.12,0003.92,0003.28
2022-06-04 14:32:00,,0822.3,5.00,0.00,28.6,27.8,00.0,37.4,30.6,23.1,0000.0,0008.28,0003.93,0003.27
2022-06-04 14:33:00,,0822.2,5.00,0.00,28.6,27.8,00.0,37.4,30.6,21.9,0000.0,0008.38,0003.95,0003.26
2022-06-04 14:34:00,,0822.2,5.02,0.00,28.7,27.8,00.0,37.5,30.6,21.9,0000.0,0009.14,0003.89,0003.24
2022-06-04 14:35:00,,0822.2,5.01,0.00,28.7,27.8,00.0,37.5,30.6,20.9,0000.0,0009.25,0003.87,0003.22
2022-06-04 14:36:00,,0822.2,5.03,0.00,28.7,27.8,00.0,37.5,30.6,22.2,0000.0,0009.18,0003.85,0003.21
2022-06-04 14:37:00,,0822.2,5.00,0.00,28.7,27.8,00.0,37.5,30.6,22.8,0000.0,0009.16,0003.81,0003.19
2022-06-04 14:38:00,,0822.1,5.01,0.00,28.7,27.8,00.0,37.5,30.6,23.3,0000.0,0009.17,0003.81,0003.18
2022-06-04 14:39:00,,0822.1,5.00,0.00,28.7,27.9,00.0,37.5,30.7,23.0,0000.0,0009.18,0003.88,0003.18
2022-06-04 14:40:00,,0822.1,5.00,0.00,28.7,27.9,00.0,37.5,30.7,23.5,0000.0,0009.23,0003.91,0003.19
2022-06-04 14:41:00,,0822.1,5.00,0.00,28.7,27.9,00.0,37.5,30.7,23.3,0000.0,0009.27,0003.92,0003.18
2022-06-04 14:42:00,,0822.1,5.00,0.00,28.8,27.9,00.0,37.6,30.7,23.4,0000.0,0009.12,0003.86,0003.17
2022-06-04 14:43:00,,0822.1,5.00,0.00,28.8,27.9,00.0,37.6,30.7,23.5,0000.0,0009.37,0003.82,0003.17
2022-06-04 14:44:00,,0822.1,5.01,0.00,28.8,27.9,00.0,37.6,30.7,23.6,0000.0,0009.91,0003.85,0003.18
2022-06-04 14:45:00,,0822.1,5.01,0.00,28.8,27.9,00.0,37.6,30.7,22.7,0000.0,0009.47,0003.85,0003.19
2022-06-04 14:46:00,,0822.1,4.99,0.00,28.8,27.9,00.0,37.6,30.7,23.1,0000.0,0009.19,0003.88,0003.21
2022-06-04 14:47:00,,0822.1,4.99,0.00,28.8,27.9,00.0,37.6,30.7,24.7,0000.0,0009.24,0003.90,0003.23
2022-06-04 14:48:00,,0822.1,5.01,0.00,28.8,27.9,00.0,37.6,30.8,24.3,0000.0,0009.15,0003.91,0003.24
2022-06-04 14:49:00,,0822.1,5.00,0.00,28.8,27.9,00.0,37.6,30.8,23.3,0000.0,0009.23,0003.92,0003.24
2022-06-04 14:50:00,,0822.1,5.01,0.00,28.8,27.9,00.0,37.7,30.8,24.9,0000.0,0009.31,0003.91,0003.25
2022-06-04 14:51:00,,0822.1,4.99,0.00,28.9,28.0,00.0,37.7,30.8,24.1,0000.0,0010.24,0003.93,0003.27
2022-06-04 14:52:00,,0822.1,5.00,0.00,28.9,28.0,00.0,37.7,30.8,24.6,0000.0,0010.55,0003.96,0003.29
2022-06-04 14:53:00,,0822.1,4.99,0.00,28.9,28.0,00.0,37.7,30.8,24.2,0000.0,0011.13,0004.05,0003.33
2022-06-04 14:54:00,,0822.0,5.02,0.00,28.9,28.0,00.0,37.7,30.8,24.8,0000.0,0011.16,0004.11,0003.36
2022-06-04 14:55:00,,0822.1,5.01,0.00,28.9,28.0,00.0,37.7,30.8,24.9,0000.0,0010.57,0004.08,0003.37
2022-06-04 14:56:00,,0822.0,5.00,0.00,28.9,28.0,00.0,37.7,30.8,24.6,0000.0,0010.23,0004.07,0003.38
2022-06-04 14:57:00,,0822.0,5.00,0.00,28.9,28.0,00.0,37.7,30.9,24.9,0000.0,0010.63,0004.11,0003.41
2022-06-04 14:58:00,,0822.0,5.00,0.00,28.9,28.0,00.0,37.8,30.9,24.8,0000.0,0010.61,0004.12,0003.43
2022-06-04 14:59:00,,0822.0,5.00,0.00,29.0,28.1,00.0,37.8,30.9,24.0,0000.0,0010.64,0004.13,0003.44
